Location: Great Malvern
(52.1167°N, 2.3167°W)
Time: 11:44:53
(UTC+00:00)

Cosmos 1626 - Pass Details

Date: 18 September 2020
Orbit: 490 x 495 km, 82.5° (Epoch: 31 October)

Event Time Altitude Azimuth Distance (km) Brightness Sun altitude
Rises 20:11:47 0° 354° (N) 2,594 6.2 -17.9°
Reaches altitude 10° 20:14:00 10° 1° (N) 1,705 5.1 -18.2°
Enters shadow 20:17:29 42° 71° (ENE) 725 2.6 -18.7°
